When you browse on this site, cookies collect data to enhance your experience and personalize the content and advertising you see.
Visit our Privacy Policy to learn more. By continuing to use the site, you agree to this use of cookies and data.
  • In Denmark
  • List of Countries
  • For 7 days
  • Water Temperature
  • Weather Map
  • Weather Widgets
  • user-avatar
    Login

    Hourly Weather Malkovka

    Today, 21 February, Friday

    Time Temperature Precipitation Wind Pressure Humidity
    00:00 +2°C° 0 mm 2 mps 747 mmHg 91%
    01:00 +2°C° 0 mm 2 mps 747 mmHg 91%
    02:00 +2°C° 0 mm 2 mps 747 mmHg 91%
    03:00 +2°C° 0 mm 2 mps 747 mmHg 92%
    04:00 +2°C° 0 mm 2 mps 747 mmHg 92%
    05:00 +1°C° 0 mm 2 mps 746 mmHg 92%
    06:00 0°C° 0 mm 3 mps 747 mmHg 93%
    07:00 0°C° 0 mm 3 mps 747 mmHg 94%
    08:00 0°C° 0 mm 3 mps 747 mmHg 95%
    15:00 +3°C° 0 mm 4 mps 746 mmHg 76%
    16:00 +3°C° 0 mm 4 mps 746 mmHg 78%
    17:00 +2°C° 0 mm 3 mps 746 mmHg 80%
    18:00 +1°C° 0 mm 4 mps 746 mmHg 83%
    19:00 0°C° 0 mm 4 mps 747 mmHg 86%
    20:00 0°C° 0 mm 4 mps 747 mmHg 89%
    21:00 0°C° 0 mm 4 mps 747 mmHg 88%
    22:00 0°C° 0 mm 4 mps 747 mmHg 88%
    23:00 0°C° 0 mm 4 mps 747 mmHg 87%

    Tomorrow, 22 February, Saturday

    Time Temperature Precipitation Wind Pressure Humidity
    00:00 -1°C° 0 mm 4 mps 748 mmHg 89%
    01:00 -1°C° 0 mm 4 mps 748 mmHg 90%
    02:00 -1°C° 0 mm 4 mps 748 mmHg 92%
    03:00 -1°C° 0 mm 4 mps 748 mmHg 93%
    04:00 -1°C° 0 mm 4 mps 748 mmHg 93%
    05:00 -2°C° 0 mm 4 mps 748 mmHg 94%
    06:00 -2°C° 0 mm 4 mps 748 mmHg 94%
    07:00 -2°C° 0 mm 4 mps 749 mmHg 93%
    08:00 -2°C° 0 mm 4 mps 749 mmHg 93%
    09:00 -1°C° 0 mm 5 mps 749 mmHg 88%
    10:00 0°C° 0 mm 5 mps 748 mmHg 84%
    11:00 +1°C° 0 mm 6 mps 748 mmHg 79%
    12:00 +1°C° 0 mm 6 mps 748 mmHg 78%
    13:00 +1°C° 0 mm 6 mps 747 mmHg 77%
    14:00 0°C° 0 mm 7 mps 747 mmHg 76%
    15:00 0°C° 0 mm 7 mps 746 mmHg 78%
    16:00 0°C° 0 mm 7 mps 745 mmHg 79%
    17:00 0°C° 0 mm 7 mps 744 mmHg 80%
    18:00 -1°C° 0 mm 7 mps 743 mmHg 80%
    19:00 -1°C° 0 mm 8 mps 743 mmHg 81%
    20:00 -1°C° 0 mm 8 mps 742 mmHg 81%
    21:00 -1°C° 0.2 mm 9 mps 740 mmHg 85%
    22:00 -2°C° 0.2 mm 10 mps 739 mmHg 88%
    23:00 -3°C° 0.2 mm 11 mps 738 mmHg 92%

    Day after tomorrow, 23 February, Sunday

    Time Temperature Precipitation Wind Pressure Humidity
    00:00 -3°C° 1.2 mm 11 mps 737 mmHg 93%
    01:00 -3°C° 1.2 mm 11 mps 736 mmHg 94%
    02:00 -3°C° 1.2 mm 11 mps 734 mmHg 96%
    03:00 -3°C° 1.2 mm 10 mps 733 mmHg 96%
    04:00 -1°C° 1.2 mm 9 mps 732 mmHg 96%
    05:00 -1°C° 1.2 mm 8 mps 731 mmHg 96%
    06:00 -1°C° 0.7 mm 8 mps 731 mmHg 95%
    07:00 -1°C° 0.7 mm 7 mps 731 mmHg 94%
    08:00 -2°C° 0.7 mm 6 mps 731 mmHg 93%
    09:00 -1°C° 0.2 mm 6 mps 731 mmHg 88%
    10:00 -1°C° 0.2 mm 6 mps 731 mmHg 83%
    11:00 +1°C° 0.2 mm 6 mps 732 mmHg 79%
    12:00 0°C° 0.2 mm 7 mps 732 mmHg 75%
    13:00 0°C° 0.2 mm 7 mps 732 mmHg 71%
    14:00 +1°C° 0.2 mm 8 mps 732 mmHg 67%
    15:00 0°C° 0 mm 7 mps 732 mmHg 69%
    16:00 +1°C° 0 mm 6 mps 732 mmHg 70%
    17:00 0°C° 0 mm 5 mps 732 mmHg 72%
    18:00 0°C° 0 mm 5 mps 732 mmHg 74%
    19:00 -1°C° 0 mm 5 mps 732 mmHg 76%
    20:00 -1°C° 0 mm 5 mps 732 mmHg 79%
    21:00 -1°C° 0 mm 5 mps 732 mmHg 79%
    22:00 -3°C° 0 mm 6 mps 731 mmHg 79%
    23:00 -3°C° 0 mm 6 mps 731 mmHg 80%

    24 February, Monday

    Time Temperature Precipitation Wind Pressure Humidity
    00:00 -2°C° 0 mm 5 mps 731 mmHg 81%
    01:00 -2°C° 0 mm 5 mps 730 mmHg 83%
    02:00 -4°C° 0 mm 5 mps 730 mmHg 84%
    03:00 -3°C° 0 mm 4 mps 730 mmHg 85%
    04:00 -3°C° 0 mm 4 mps 729 mmHg 86%
    05:00 -3°C° 0 mm 4 mps 729 mmHg 87%
    06:00 -4°C° 0 mm 5 mps 730 mmHg 88%
    07:00 -4°C° 0 mm 5 mps 730 mmHg 89%
    08:00 -4°C° 0 mm 5 mps 730 mmHg 90%
    09:00 -2°C° 0.1 mm 5 mps 731 mmHg 82%
    10:00 -1°C° 0.1 mm 6 mps 731 mmHg 75%
    11:00 +1°C° 0.1 mm 6 mps 732 mmHg 68%
    12:00 0°C° 0 mm 7 mps 732 mmHg 64%
    13:00 0°C° 0 mm 7 mps 733 mmHg 61%
    14:00 0°C° 0 mm 8 mps 733 mmHg 58%
    15:00 -1°C° 0 mm 8 mps 734 mmHg 61%
    16:00 -1°C° 0 mm 7 mps 735 mmHg 65%
    17:00 -2°C° 0 mm 7 mps 735 mmHg 69%
    18:00 -3°C° 0 mm 6 mps 736 mmHg 69%
    19:00 -3°C° 0 mm 6 mps 737 mmHg 69%
    20:00 -4°C° 0 mm 6 mps 738 mmHg 70%
    21:00 -4°C° 0 mm 6 mps 739 mmHg 70%
    22:00 -4°C° 0 mm 6 mps 739 mmHg 70%
    23:00 -4°C° 0 mm 5 mps 740 mmHg 71%

    25 February, Tuesday

    Time Temperature Precipitation Wind Pressure Humidity
    00:00 -5°C° 0 mm 5 mps 740 mmHg 70%
    01:00 -5°C° 0 mm 5 mps 741 mmHg 69%
    02:00 -5°C° 0 mm 5 mps 741 mmHg 68%
    03:00 -4°C° 0 mm 4 mps 741 mmHg 70%
    04:00 -4°C° 0 mm 4 mps 742 mmHg 71%
    05:00 -4°C° 0 mm 4 mps 742 mmHg 72%
    06:00 -4°C° 0 mm 3 mps 742 mmHg 73%
    07:00 -4°C° 0 mm 3 mps 743 mmHg 74%
    08:00 -4°C° 0 mm 3 mps 743 mmHg 75%
    09:00 -2°C° 0 mm 3 mps 742 mmHg 68%
    10:00 -2°C° 0 mm 3 mps 742 mmHg 61%
    11:00 -2°C° 0 mm 4 mps 742 mmHg 54%
    12:00 -1°C° 0 mm 4 mps 742 mmHg 52%
    13:00 -1°C° 0 mm 5 mps 741 mmHg 50%
    14:00 -1°C° 0 mm 6 mps 740 mmHg 48%
    15:00 -2°C° 0 mm 6 mps 740 mmHg 49%
    16:00 -2°C° 0 mm 6 mps 739 mmHg 51%
    17:00 -2°C° 0 mm 6 mps 739 mmHg 53%
    18:00 -2°C° 0 mm 6 mps 738 mmHg 59%
    19:00 -2°C° 0 mm 6 mps 738 mmHg 65%
    20:00 -2°C° 0 mm 7 mps 738 mmHg 71%
    21:00 -2°C° 0 mm 6 mps 737 mmHg 76%
    22:00 -2°C° 0 mm 6 mps 737 mmHg 82%
    23:00 -2°C° 0 mm 6 mps 737 mmHg 88%

    26 February, Wednesday

    Time Temperature Precipitation Wind Pressure Humidity
    00:00 -2°C° 0.2 mm 6 mps 736 mmHg 88%
    01:00 -2°C° 0.2 mm 6 mps 736 mmHg 88%
    02:00 -2°C° 0.2 mm 6 mps 736 mmHg 88%
    03:00 -1°C° 0.3 mm 6 mps 735 mmHg 88%
    04:00 -1°C° 0.3 mm 6 mps 735 mmHg 89%
    05:00 -1°C° 0.3 mm 6 mps 735 mmHg 89%
    06:00 -1°C° 0 mm 6 mps 734 mmHg 88%
    07:00 -1°C° 0 mm 6 mps 734 mmHg 87%
    08:00 0°C° 0 mm 5 mps 734 mmHg 86%
    09:00 -1°C° 0 mm 6 mps 734 mmHg 84%
    10:00 -1°C° 0 mm 6 mps 734 mmHg 82%
    11:00 +1°C° 0 mm 6 mps 734 mmHg 80%
    12:00 +1°C° 0 mm 6 mps 734 mmHg 78%
    13:00 +2°C° 0 mm 6 mps 733 mmHg 77%
    14:00 +2°C° 0 mm 6 mps 733 mmHg 76%
    15:00 +1°C° 0.3 mm 6 mps 733 mmHg 83%
    16:00 +1°C° 0.3 mm 6 mps 732 mmHg 89%
    17:00 0°C° 0.3 mm 5 mps 732 mmHg 96%
    18:00 0°C° 0.6 mm 5 mps 732 mmHg 96%
    19:00 0°C° 0.6 mm 5 mps 732 mmHg 96%
    20:00 +1°C° 0.6 mm 4 mps 731 mmHg 97%
    21:00 +1°C° 0.5 mm 4 mps 731 mmHg 97%
    22:00 +1°C° 0.5 mm 4 mps 731 mmHg 97%
    23:00 +1°C° 0.5 mm 4 mps 730 mmHg 97%
    Show more